Location: Berlise
(49.6641°N, 4.1077°E)
Time: 02:20:16
(UTC+00:00)

SJ-12 - Pass Details

Date: 27 January 2021
Orbit: 568 x 584 km, 97.7° (Epoch: 28 February)

Event Time Altitude Azimuth Distance (km) Brightness Sun altitude
Rises 04:55:46 0° 13° (NNE) 2,824 7.6 -23.6°
Reaches altitude 10° 04:57:56 10° 14° (NNE) 1,918 6.7 -23.3°
Maximum altitude 05:02:06 86° 101° (ESE) 592 3.9 -22.6°
Enters shadow 05:04:45 22° 193° (SSW) 1,299 5.6 -22.2°
